Tacoma, WA

10:33 AM PST on November 21, 2017 (GMT -0800)
McChord Air Force Base

Weather History for KTCM - August, 2014

Change the Weather History Date:

Friday, August 8, 2014

  Actual Average Record
Temperature  
Mean Temperature 64 °F -  
Max Temperature 78 °F 76 °F 98 °F (1986)
Min Temperature 52 °F 52 °F 46 °F (2002)
Growing Degree Days 14 (Base 50)    
Moisture  
Dew Point 51 °F    
Average Humidity 63    
Maximum Humidity 92    
Minimum Humidity 36    
Precipitation  
Precipitation 0.00 in - - ()
Sea Level Pressure  
Sea Level Pressure 30.11 in    
Wind  
Wind Speed 4 mph (WNW)    
Max Wind Speed 7 mph    
Max Gust Speed -    
Visibility 10 miles    
Events      
Averages and records for this station are not official NWS values.
T = Trace of Precipitation, MM = Missing Value Source: NWS Daily Summary

Daily Weather History Graph

Daily Weather History Graph

Search for Another Location

Airport or City:

Trip Planner

Search our weather history database for the weather conditions in past years. The results will help you decide how hot, cold, wet, or windy it might be!

Date:

Astronomy

Aug. 08, 2014 Rise Set
Actual Time 5:57 AM PDT 8:32 PM PDT
Civil Twilight 5:23 AM PDT 9:06 PM PDT
Nautical Twilight 4:39 AM PDT 9:49 PM PDT
Astronomical Twilight 3:49 AM PDT 10:39 PM PDT
Moon 6:49 PM PDT (8/8) 3:33 AM PDT (8/8)
Length of Visible Light 15h 43m
Length of Day
14h 34m
Waxing Gibbous, 94% of the Moon is Illuminated
Aug 8
Waxing Gibbous
Aug 10
Full
Aug 17
Last Quarter
Aug 25
New
Sep 2
First Quarter

Hourly Weather History & Observations

Time (PDT) Temp. Dew Point Humidity Pressure Visibility Wind Dir Wind Speed Gust Speed Precip Events Conditions
12:58 AM 55.0 °F 49.5 °F 81% 30.08 in 10.0 mi SSW 3.5 mph - N/A   Clear
1:58 AM 54.1 °F 49.6 °F 85% 30.08 in 10.0 mi SSW 3.5 mph - N/A   Mostly Cloudy
2:58 AM 56.1 °F 50.4 °F 81% 30.09 in 10.0 mi South 2.3 mph - N/A   Mostly Cloudy
3:58 AM 56.3 °F 51.1 °F 83% 30.10 in 10.0 mi South 1.2 mph - N/A   Scattered Clouds
4:58 AM 54.5 °F 50.2 °F 85% 30.10 in 10.0 mi South 1.2 mph - N/A   Overcast
5:58 AM 52.3 °F 50.0 °F 92% 30.11 in 10.0 mi Calm Calm - N/A   Scattered Clouds
6:58 AM 52.7 °F 50.5 °F 92% 30.12 in 10.0 mi Calm Calm - N/A   Mostly Cloudy
7:58 AM 57.9 °F 51.8 °F 80% 30.13 in 10.0 mi WSW 6.9 mph - N/A   Clear
8:58 AM 60.1 °F 51.4 °F 73% 30.14 in 10.0 mi WSW 6.9 mph - N/A   Scattered Clouds
9:58 AM 63.7 °F 51.8 °F 65% 30.14 in 10.0 mi Variable 6.9 mph - N/A   Partly Cloudy
10:58 AM 66.0 °F 51.6 °F 60% 30.14 in 10.0 mi Variable 3.5 mph - N/A   Clear
11:58 AM 68.4 °F 51.6 °F 55% 30.14 in 10.0 mi Variable 4.6 mph - N/A   Clear
12:58 PM 71.8 °F 53.2 °F 52% 30.13 in 10.0 mi Variable 4.6 mph - N/A   Clear
1:58 PM 73.8 °F 52.3 °F 47% 30.13 in 10.0 mi NNW 5.8 mph - N/A   Clear
2:58 PM 75.4 °F 51.4 °F 43% 30.12 in 10.0 mi North 5.8 mph - N/A   Clear
3:58 PM 76.1 °F 51.6 °F 42% 30.11 in 10.0 mi Variable 4.6 mph - N/A   Clear
4:58 PM 77.2 °F 51.3 °F 40% 30.09 in 10.0 mi Variable 4.6 mph - N/A   Clear
5:58 PM 77.4 °F 48.4 °F 36% 30.09 in 10.0 mi North 5.8 mph - N/A   Clear
6:58 PM 76.8 °F 50.2 °F 39% 30.09 in 10.0 mi NNW 6.9 mph - N/A   Clear
7:58 PM 75.2 °F 48.7 °F 39% 30.08 in 10.0 mi NE 6.9 mph - N/A   Clear
8:58 PM 70.7 °F 55.4 °F 58% 30.09 in 10.0 mi NW 6.9 mph - N/A   Clear
9:58 PM 68.0 °F 52.7 °F 58% 30.10 in 10.0 mi WNW 4.6 mph - N/A   Clear
10:58 PM 65.3 °F 52.0 °F 62% 30.11 in 10.0 mi NW 3.5 mph - N/A   Clear
11:58 PM 63.9 °F 52.2 °F 66% 30.12 in 10.0 mi NNE 1.2 mph - N/A   Clear